MYSat 1
1 44045U 18092F   22132.62753968  .00043393  00000-0  72258-3 0  9992
2 44045  51.6329 251.0635 0010391 324.4102  35.6193 15.51522621182308
AstroCast 0.2
1 44083U 19018F   22132.63439003  .00006206  00000-0  24437-3 0  9993
2 44083  97.3253 192.2036 0009931 250.2131 109.8037 15.25926613173020
AISTechSat 3
1 44103U 19018AB  22132.64936138  .00008645  00000-0  32981-3 0  9990
2 44103  97.3116 192.6153 0010659 259.2546 100.7494 15.26855472173182
AISat 1
1 44104U 19018AC  22132.18886733  .00006513  00000-0  18740-3 0  9994
2 44104  97.3958 215.1995 0051442 262.5754  96.9642 15.34800866174037
Prox-1
1 44339U 19036A   22132.18235631  .00003454  00000-0  74125-3 0  9999
2 44339  24.0009  62.4203 0011202 177.1230 182.9327 14.54806884153159
Oculus-ASR
1 44348U 19036K   22132.56064533  .00050649 -59191-5  51297-3 0  9996
2 44348  28.5053  79.1608 0256931 269.8334  87.2823 15.31922395159027
Armadillo
1 44352U 19036P   22132.73565445  .00178935  16563-5  11385-2 0  9995
2 44352  28.5249  12.6515 0167551  14.4881 346.0452 15.58087020159657
NO-104
1 44354U 19036R   22132.50165045  .00057676 -57376-5  55974-3 0  9993
2 44354  28.5282  66.7027 0247865 286.9030  70.4533 15.34620845159136
Move-IIb
1 44398U 19038N   22132.83238515  .00009410  00000-0  46792-3 0  9999
2 44398  97.6256 101.8865 0019628 250.8628 109.0482 15.17690164157637
SONATE
1 44400U 19038Q   22132.84443482  .00004258  00000-0  23515-3 0  9998
2 44400  97.6376 101.2056 0021956 254.8934 104.9874 15.14277705157549
BeeSat 9
1 44412U 19038AC  22132.16215529  .00007056  00000-0  36705-3 0  9999
2 44412  97.6328 101.2060 0018363 258.8667 101.0501 15.16226574157195
JAISAT-1
1 44419U 19038F   22132.15925636  .00007003  00000-0  35960-3 0  9996
2 44419  97.6330 102.0122 0017328 255.7789 104.1519 15.16702024157556
LightSail-2
1 44420U 19036AC  22132.71907629  .00055067  00000-0  79517-2 0  9998
2 44420  24.0016   5.7471 0017366 267.2216  92.6293 14.74722823151910
Taurus 1
1 44530U 19059C   22132.67158177  .00002142  00000-0  60215-3 0  9998
2 44530  98.5442 230.8461 0012973 221.1410 138.8807 14.46896097140674
Duchifat 3
1 44854U 19089C   22132.78324455  .00003193  00000-0  25262-3 0  9996
2 44854  36.9676 311.7760 0009563 296.1167  63.8594 15.00797817132572
OPS-SAT
1 44878U 19092F   22132.77259742  .00008843  00000-0  41969-3 0  9990
2 44878  97.4803 317.0457 0014135 104.7520 255.5282 15.19405037132778
TO-108
1 44881U 19093C   22132.65209509  .00000511  00000-0  71532-4 0  9992
2 44881  97.8920 212.3734 0013848 306.3072  53.6868 14.81678401129478
FloripaSat 1
1 44885U 19093G   22132.65378358  .00001665  00000-0  21128-3 0  9991
2 44885  97.8959 213.5637 0013200 312.7692  47.2411 14.82986076129542
RS-44
1 44909U 19096E   22132.07132242 -.00000005  00000-0 -68443-4 0  9998
2 44909  82.5213 254.4411 0218004  45.0406 316.8144 12.79713173110903
Phoenix
1 45258U 98067RB  22131.98114246  .00224026  00000-0  76528-3 0  9995
2 45258  51.6300 105.1382 0007556  66.8191 293.3610 15.88554124126641
BY70-2
1 45857U 20042B   22132.78616671  .00006059  00000-0  82116-3 0  9990
2 45857  97.9542 209.9789 0010026 221.6905 138.3538 14.79254925100184
UPMSat 2
1 46276U 20061E   22132.64661062  .00003623  00000-0  18213-3 0  9997
2 46276  97.3933 204.2904 0000524  43.5811 316.5464 15.17873901 93446
AmicalSat
1 46287U 20061R   22132.15900265  .00004817  00000-0  28209-3 0  9998
2 46287  97.4480 202.7707 0003668  65.5038 294.6575 15.12269264 92980
SALSAT
1 46495U 20068K   22131.78119732  .00002608  00000-0  19110-3 0  9992
2 46495  97.7273  73.0794 0017639  45.4657 314.8006 15.04316695 88673
BY70-3
1 46839U 20079N   22132.73398318  .00018507  00000-0  46001-3 0  9995
2 46839  97.1998 205.3308 0007506 107.4424 351.2306 15.40324389 84748
SPOC
1 46921U 98067RR  22132.08468320  .00156885  00000-0  71263-3 0  9998
2 46921  51.6289 118.7366 0005799  55.0922 305.0625 15.82869600 86213
Neutron-1
1 46923U 98067RT  22132.31655617  .00179840  00000-0  81829-3 0  9998
2 46923  51.6299 118.0480 0005583  52.2370 307.9138 15.82766581 86273
CAPE 3
1 47309U 21002A   22132.73585849  .00008646  00000-0  36376-3 0  9999
2 47309  60.6829 138.8441 0015665 293.6494  66.2949 15.24015579 73000
AO-109
1 47311U 21002C   22132.14575516  .00007308  00000-0  30426-3 0  9991
2 47311  60.6848 138.8625 0011269 290.7275  69.2604 15.24620553 72935
MiTEE 1
1 47314U 21002F   22131.71747712  .00012793  00000-0  46287-3 0  9991
2 47314  60.6818 134.9011 0010088 270.5831  89.4103 15.28750962 72977
ExoCube 2
1 47319U 21002L   22132.19980821  .00006475  00000-0  27418-3 0  9994
2 47319  60.6829 139.6361 0012853 293.5572  66.4165 15.24194006 72883
UVSQ-SAT
1 47438U 21006AB  22132.62538075  .00006134  00000-0  32928-3 0  9992
2 47438  97.4403 192.3765 0012936  46.8202 313.4109 15.15218640 71856
YUSAT 1
1 47439U 21006AC  22132.60489554  .00006970  00000-0  37008-3 0  9990
2 47439  97.4408 192.4270 0012647  47.1390 313.0902 15.15561994 71855
SOMP 2b
1 47445U 21006AJ  22132.61652829  .00005797  00000-0  31387-3 0  9995
2 47445  97.4373 192.0634 0012709  50.7509 309.4849 15.14940581 71844
IDEASSat
1 47458U 21006AX  22132.13219799  .00005088  00000-0  27739-3 0  9990
2 47458  97.4464 192.0522 0011809  51.0923 309.1360 15.14766273 71769
RSP-01
1 47925U 98067SB  22132.16865168  .00251918  00000-0  10086-2 0  9991
2 47925  51.6306 127.5657 0007026  53.0468 307.1178 15.85249614 66086
Tsuru
1 47927U 98067SD  22131.04702293  .00137611  00000-0  79184-3 0  9996
2 47927  51.6333 136.5953 0006455  44.9957 315.1565 15.77760239 65860
Maya-2
1 47929U 98067SF  22132.18823934  .00142389  00000-0  81518-3 0  9992
2 47929  51.6332 130.7140 0006269  51.7447 308.4117 15.77859573 66003
GuaraniSat-1
1 47931U 98067SH  22132.36284420  .00151460  00000-0  85238-3 0  9999
2 47931  51.6308 129.6471 0006019  51.4037 308.7502 15.78214670 66070
CubeSX-Sirius-HSE
1 47951U 21022V   22132.76891045  .00003638  00000-0  24518-3 0  9996
2 47951  97.5349  33.0387 0019460 268.6064  91.2928 15.07143870 62624
CubeSX-HSE
1 47952U 21022W   22132.75753059  .00003314  00000-0  22347-3 0  9997
2 47952  97.5333  33.0442 0019173 268.3504  91.5522 15.07195756 62620
KSU-Cubesat
1 47954U 21022Y   22132.66071596  .00004695  00000-0  31304-3 0  9994
2 47954  97.5351  33.0353 0018962 267.7020  92.2037 15.07403309 62337
GRBAlpha
1 47959U 21022AD  22132.75617450  .00003334  00000-0  22468-3 0  9994
2 47959  97.5331  33.0765 0019134 269.1292  90.7745 15.07215227 61446
Orbicraft-Zorkiy
1 47960U 21022AE  22132.73416468  .00003921  00000-0  26255-3 0  9990
2 47960  97.5343  33.1692 0019211 268.9455  90.9608 15.07337958 62138
STECCO
1 47962U 21022AG  22132.74657477  .00005908  00000-0  37549-3 0  9995
2 47962  97.5320  33.7665 0014161 262.3669 184.2654 15.09126426 61488
DO-111
1 47963U 21022AH  22132.63172386  .00015624  00000-0  90333-3 0  9991
2 47963  97.5363  34.4309 0014857 254.5181 105.4409 15.12271643 61538
MO-110
1 47964U 21022AJ  22132.71741819  .00006582  00000-0  41344-3 0  9995
2 47964  97.5347  33.9647 0016626 257.7073 102.2294 15.09487182 61496
FEES
1 48082U 21022AL  22132.19507411  .00008763  00000-0  54511-3 0  9990
2 48082  97.5353  33.3367 0012827 255.9158 104.0645 15.09791461 61118
RamSat
1 48850U 98067SL  22132.20771415  .00056777  00000-0  56369-3 0  9996
2 48850  51.6366 142.1175 0004505 358.3245   1.7734 15.65193735 51642
TUBIN
1 48900U 21059X   22132.75389848  .00003918  00000-0  22174-3 0  9990
2 48900  97.5477 262.3581 0009345 220.0804 276.2085 15.13600756 48518
IT-SPINS
1 49017U 21013G   22131.52375624  .00007410  00000-0  29836-3 0  9994
2 49017  51.5950 216.3485 0008651 306.7841  53.2342 15.25836159 48147
LEDSAT
1 49069U 21073D   22132.43214087  .00003962  00000-0  25659-3 0  9990
2 49069  97.5249 206.0378 0028426  60.0992 300.3054 15.08378077 40409
CUTE
1 49263U 21088D   22132.57707679  .00004059  00000-0  30661-3 0  9998
2 49263  97.5919 201.2189 0020748 177.7508 182.3814 15.02772157 34039
Binar-1
1 49272U 98067SR  22132.40362670  .00060536  00000-0  61798-3 0  9996
2 49272  51.6349 144.9022 0002662  71.8310 288.2975 15.64471741 34011
Maya-3
1 49273U 98067SS  22132.14765912  .00101970  00000-0  83668-3 0  9992
2 49273  51.6343 143.9381 0004505  54.1797 305.9618 15.69648927 34001
Maya-4
1 49274U 98067ST  22132.16157975  .00100244  00000-0  83271-3 0  9992
2 49274  51.6340 144.0278 0004540  54.9673 305.1750 15.69358096 34000
CUAVA-1
1 49275U 98067SU  22132.76267808  .00067132  00000-0  61275-3 0  9994
2 49275  51.6381 141.6780 0002994  58.9184 113.0074 15.67226447 34039
TeikyoSat 4
1 49396U 21102B   22132.61600813  .00000784  00000-0  66636-4 0  9992
2 49396  97.5296 191.8186 0017639  29.7957 330.4267 15.00535321 27672
Z-Sat
1 49399U 21102E   22132.66820989  .00000849  00000-0  68278-4 0  9994
2 49399  97.5379 192.4329 0023558 355.4216   4.6790 15.02417174 27710
KOSEN 1
1 49402U 21102H   22132.42223794  .00002020  00000-0  15211-3 0  9995
2 49402  97.5337 192.2871 0021572 349.0616  11.0138 15.03437002 27694
HO-113
1 50466U 21131B   22132.69792310  .00000152  00000-0  64480-4 0  9990
2 50466  98.5807 209.9676 0003434 245.4224 114.6605 14.38481253 19772
Tevel
1 50999U 22002R   22132.71327154  .00006845  00000-0  37678-3 0  9995
2 50999  97.4818 200.3676 0011861 175.1803 283.9293 15.14297535 18015
Grizu-263a
1 51025U 22002AT  22132.17659912  .00012446  00000-0  65553-3 0  9993
2 51025  97.5003 200.2417 0013829 182.8626 177.2530 15.15666968 17940
